GPS BIIF-5 (39533 NORAD) Tracking and Keplerian Element Data

This shows tracking and keplerian element data for the satellite.

Feedback or suggestion? Click here.




ElementValue
Catalog39533
NameGPS BIIF-5
Epoch Orbit4280
Epoch Day21.84917572
Epoch Year2020
RAAN244.8313
Inclination53.8162
Eccentricity0.004247
Argument of Perigee194.9048
Mean Anonmoly165.0433
Mean Motion2.0056011
Decay Rate6.7E-07
L11 39533U 14008A 20021.84917572 .00000067 00000-0 00000-0 0 9997
L22 39533 53.8162 244.8313 0042470 194.9048 165.0433 2.00560110 42808

Live tracking and technical data element details for GPS BIIF-5 (NORAD 39533). GPS BIIF-5 can be tracked NOW for your location showing map with azimuth and elevation plus other details from your city location.

Track the satellite on the map from your city or location and see movement details for azimuth, elevation, latitude, longitude, range, height, and movement on the map or in text.







IsCatalogInMostPopularTable: catalog: 39533, numindb: 411
Update: records affected: 1



GetName: 39533 GPS BIIF-5

Hit Count: updated at: Sun, 26 Jan 2020 18:24:57 GMT